SCP
0 1 1 1 1 0 0 0 0 0 0 0 0 0 0 0 0 0 0 0 0 0 0 0 0 0 0 0 0 0 0 0 0 0 0 0 0 0
1 1 1 1 0 0 0 0 0 0 0 0 0 0 0 0 0 0 0 0 0 0 0 0 0 0 0 0 0 0 0 0 0 0 0 0 0 0
1 1 1 0 0 0 0 0 0 0 0 0 0 0 0 0 0 0 0 0 0 0 0 0 0 0 0 0 0 0 0 0 0 0 0 0 0 0
0 0 0 0 0 0 0 0 0 0 0 0 0 0 0 0 0 0 0 0 0 0 0 0 0 0 0 0 0 0 0 0 0 0 0 0 0 0
0 0 0 0 0 0 0 0 0 0 0 0 0 0 0 0 0 0 0 0 0 0 0 0 0 0 0 0 0 0 0 0 0 0 0 0 0 0
0 0 0 0 0 0 0 0 0 0 0 0 0 0 0 0 0 0 0 0 0 0 0 0 0 0 0 0 0 0 0 0 0 0 0 0 0 0
0 0 0 0 0 0 0 0 0 0 0 0 0 0 0 0 0 0 0 0 0 0 0 0 0 0 0 0 0 0 0 0 0 0 0 0 0 0
0 0 0 0 0 0 0 0 0 0 0 0 0 0 0 0 0 0 0 0 0 0 0 0 0 0 0 0 0 0 0 0 0 0 0 0 0 0
0 0 0 0 0 0 0 0 0 0 0 0 0 0 0 0 0 0 0 0 0 0 0 0 0 0 0 0 0 0 0 0 0 0 0 0 0 0
0 0 0 0 0 0 0 0 0 0 0 0 0 0 0 0 0 0 0 0 0 0 0 0 0 0 0 0 0 0 0 0 0 0 0 0 0 0
0 0 0 0 0 0 0 0 0 0 0 0 0 0 0 0 0 0 0 0 0 0 0 0 0 0 0 0 0 0 0 0 0 0 0 0 0 0
0 0 0 0 0 0 0 0 0 0 0 0 0 0 0 0 0 0 0 0 0 0 0 0 0 0 0 0 0 0 0 0 0 0 0 0 0 0
0 0 0 0 0 0 0 0 0 0 0 0 0 0 0 0 0 0 0 0 0 0 0 0 0 0 0 0 0 0 0 0 0 0 0 0 0 0
0 0 0 0 0 0 0 0 0 0 0 0 0 0 0 0 0 0 0 0 0 0 0 0 0 0 0 0 0 0 0 0 0 0 0 0 0 0
0 0 0 0 0 0 0 0 0 0 0 0 0 0 0 0 0 0 0 0 0 0 0 0 0 0 0 0 0 0 0 0 0 0 0 0 0 0
0 0 0 0 0 0 0 0 0 0 0 0 0 0 0 0 0 0 0 0 0 0 0 0 0 0 0 0 0 0 0 0 0 0 0 0 0 0
0 0 0 0 0 0 0 0 0 0 0 0 0 0 0 0 0 0 0 0 0 0 0 0 0 0 0 0 0 0 0 0 0 0 0 0 0 0
0 0 0 0 0 0 0 0 0 0 0 0 0 0 0 0 0 0 0 0 0 0 0 0 0 0 0 0 0 0 0 0 0 0 0 0 0 0
0 0 0 0 0 0 0 0 0 0 0 0 0 0 0 0 0 0 0 0 0 0 0 0 0 0 0 0 0 0 0 0 0 0 0 0 0 0
0 0 0 0 0 0 0 0 0 0 0 0 0 0 0 0 0 0 0 0 0 0 0 0 0 0 0 0 0 0 0 0 0 0 0 0 0 0
0 0 0 0 0 0 0 0 0 0 0 0 0 0 0 0 0 0 0 0 0 0 0 0 0 0 0 0 0 0 0 0 0 0 0 0 0 0
0 0 0 0 0 0 0 0 0 0 0 0 0 0 0 0 0 0 0 0 0 0 0 0 0 0 0 0 0 0 0 0 0 0 0 0 0 0
0 0 0 0 0 0 0 0 0 0 0 0 0 0 0 0 0 0 0 0 0 0 0 0 0 0 0 0 0 0 0 0 0 0 0 0 0 0
Wind_Speed
5 4 3 2 2 2 2 3 4 3 3 2 2 3 3 3 3 2 2 4 5 6 6 7 7 7 8 9 10 10 11 10 10 9 9 9 8 6
4 5 4 3 3 3 2 2 2 3 2 1 2 2 3 4 4 3 2 3 4 4 5 5 6 7 8 8 9 10 10 10 11 10 9 9 8 6
5 6 5 5 4 3 3 2 2 2 2 1 1 2 3 3 3 2 1 1 1 3 3 4 5 6 6 8 8 9 10 10 10 10 10 10 8 7
7 7 6 5 5 4 4 3 3 2 3 2 1 1 2 3 3 2 1 1 1 2 2 3 3 4 5 6 8 8 9 10 10 10 10 10 9 8
7 8 7 7 6 5 5 4 3 2 2 2 1 1 1 2 2 1 1 0 0 1 1 1 2 3 4 5 6 8 9 10 10 10 11 11 9 9
6 7 7 7 7 7 5 5 4 3 3 2 2 2 2 2 2 2 2 2 1 1 1 1 0 1 2 4 5 7 8 9 9 10 11 11 11 9
5 5 6 7 7 7 5 5 5 4 3 3 3 2 3 2 3 3 2 2 1 1 1 1 1 0 1 2 3 5 6 8 8 9 10 11 10 10
6 5 6 7 8 9 9 8 7 6 5 4 3 4 4 4 3 3 3 2 2 1 1 1 1 1 0 0 2 4 5 6 7 8 10 10 10 11
7 7 5 6 8 6 7 8 5 5 5 4 4 4 4 4 5 3 3 3 2 2 2 1 1 1 1 1 2 2 3 5 6 7 8 9 10 11
6 7 7 7 7 8 6 5 4 3 4 3 3 2 2 3 5 5 4 3 2 0 2 1 1 1 1 1 1 1 2 3 4 5 7 8 8 9
6 7 8 8 12 14 8 7 5 4 4 6 6 5 6 6 5 4 4 3 2 2 1 2 1 1 1 1 1 1 1 1 2 4 5 6 7 7
5 6 10 11 14 15 8 8 7 5 5 4 4 4 3 3 5 4 4 4 2 2 2 2 1 1 0 1 1 1 1 1 1 2 3 5 6 4
6 6 6 14 15 15 12 7 9 7 6 5 4 3 3 2 2 2 3 3 3 2 2 3 2 1 2 1 1 1 1 0 1 1 2 4 4 3
7 6 7 15 15 15 11 10 13 10 5 4 4 4 3 3 3 3 3 3 3 3 3 3 2 2 2 1 1 1 1 0 0 0 1 3 4 4
6 10 12 15 14 11 13 14 11 6 5 4 4 4 4 4 4 3 3 3 3 2 2 2 3 2 2 2 1 1 1 1 0 0 1 1 1 1
6 10 15 15 11 10 10 8 5 6 6 5 4 3 4 4 4 3 3 3 2 1 1 2 3 3 2 2 2 2 2 2 1 1 1 2 2 2
6 5 5 6 7 6 5 5 5 6 6 5 5 5 5 4 4 3 3 3 3 3 3 2 2 2 2 3 2 4 3 3 2 2 1 2 3 4
9 6 7 7 8 8 8 7 7 7 6 5 5 5 5 5 5 4 3 4 4 3 3 3 3 1 1 3 8 5 3 3 2 2 2 2 4 3
8 7 8 8 8 8 8 8 8 7 6 6 6 6 5 5 5 4 4 4 4 4 3 4 4 4 2 3 3 8 4 2 2 2 3 3 4 4
6 6 7 7 7 8 8 8 7 7 6 7 6 6 6 6 5 6 6 5 5 4 4 4 5 5 5 4 2 3 8 4 3 3 2 2 4 7
6 6 6 7 7 7 7 7 8 7 7 7 7 7 7 6 6 6 6 9 7 5 6 6 6 8 3 2 1 3 3 9 7 4 3 2 2 3
5 6 6 7 7 7 7 7 7 7 8 8 7 7 7 7 7 8 7 6 6 6 6 4 4 5 4 5 5 4 3 3 7 12 10 8 4 4
5 5 5 6 6 6 7 8 9 7 8 8 8 8 8 7 7 7 7 7 6 6 5 4 4 4 4 5 4 4 5 4 3 3 5 11 17 18
Wind_Direction
167 165 161 157 143 136 131 143 162 192 222 178 130 123 116 110 104 77 74 66 65 62 58 49 38 27 25 21 16 12 11 6 0 355 352 349 335 327
160 160 162 156 140 137 141 142 150 168 201 164 135 137 128 125 120 94 82 75 74 74 63 50 40 33 28 25 18 15 12 9 6 4 2 357 355 350
164 167 169 156 150 149 146 154 163 160 197 196 94 117 128 137 129 114 93 59 81 78 69 55 45 38 31 26 20 16 13 11 6 7 6 1 1 2
174 169 169 156 154 154 157 165 168 165 173 197 156 138 141 145 135 135 136 116 104 94 82 63 51 42 35 29 25 22 17 12 10 11 10 6 9 12
176 173 168 162 168 162 162 167 167 162 159 168 175 139 131 130 127 155 183 185 188 160 159 91 55 40 32 29 29 26 20 16 18 21 20 16 20 27
171 169 167 170 173 167 167 171 165 163 166 176 186 181 173 159 160 184 205 206 215 208 212 192 39 21 25 33 34 28 23 20 22 25 27 27 27 31
154 154 156 157 160 163 165 167 164 169 176 184 192 184 182 175 196 186 190 177 211 204 197 235 209 317 344 24 35 28 25 25 27 29 31 31 34 36
162 155 147 145 155 160 161 163 167 175 183 183 192 200 202 194 175 168 159 153 229 225 162 235 160 171 202 80 42 36 32 34 36 35 34 35 37 38
165 160 161 168 162 153 161 159 163 171 175 172 187 201 193 184 162 162 176 179 193 183 136 218 197 193 203 124 72 33 37 43 41 38 36 36 37 38
167 168 166 164 169 164 162 161 165 172 175 169 175 178 160 149 156 166 168 132 96 113 129 181 209 203 176 158 147 67 57 54 47 40 36 33 32 34
173 174 171 173 184 180 168 163 165 171 162 145 138 136 131 137 141 125 131 130 172 217 180 162 187 169 180 206 203 160 114 59 39 35 32 30 28 27
179 185 190 188 190 186 174 170 179 182 161 150 143 140 136 154 156 151 156 155 163 193 199 156 154 113 309 279 203 218 297 281 326 24 24 21 19 28
187 189 195 198 196 193 187 182 191 173 162 160 162 164 158 153 141 128 141 155 157 181 180 137 136 137 167 246 270 224 182 251 347 350 352 355 2 20
192 188 191 196 196 196 194 192 191 172 152 158 165 174 173 169 156 137 122 113 124 152 147 128 144 160 150 177 254 280 289 250 167 295 331 330 336 330
192 190 190 195 194 196 198 194 186 166 160 172 183 186 178 163 145 130 113 105 91 101 126 130 145 153 151 175 208 222 277 281 233 204 301 300 288 302
194 193 191 191 185 187 191 193 177 174 174 182 179 169 153 150 156 154 154 155 144 162 147 144 151 155 169 199 200 230 225 247 252 230 263 278 271 253
173 166 169 171 180 181 181 178 177 182 193 179 173 167 167 167 170 166 160 161 172 173 176 180 179 176 190 185 214 232 233 237 228 211 230 283 269 252
188 183 187 188 189 188 188 188 189 191 189 181 178 175 175 176 175 169 166 173 188 190 180 169 153 135 303 255 217 224 228 231 222 201 196 252 281 266
204 194 193 193 192 189 189 190 193 189 181 182 184 181 175 175 174 178 180 186 198 199 188 168 162 163 181 258 248 202 197 205 193 207 213 218 252 271
203 197 196 193 191 190 189 190 188 181 182 186 185 182 180 180 184 187 189 194 198 196 194 186 188 190 194 203 231 229 208 201 195 218 235 237 257 271
203 199 195 192 190 189 189 188 185 186 185 185 188 188 187 188 194 195 194 204 200 196 206 211 211 192 166 138 240 258 234 218 213 203 202 225 269 278
205 203 198 193 190 187 186 186 187 187 188 190 191 191 192 193 198 197 196 196 201 203 209 198 165 161 166 197 226 240 252 241 237 242 240 218 199 220
210 204 199 194 191 185 184 187 190 193 192 193 192 192 192 196 198 198 198 198 197 199 196 182 170 176 194 206 227 242 251 251 245 244 248 246 245 250